Location: ??????
(55.6130°N, 37.7882°E)
Time: 04:33:38
(UTC+00:00)

Cosmos 1975 - Pass Details

Date: 14 April 2024
Orbit: 514 x 533 km, 82.5° (Epoch: 23 May)

Event Time Altitude Azimuth Distance (km) Brightness Sun altitude
Rises 01:22:11 0° 344° (NNW) 2,650 6.5 -9.0°
Reaches altitude 10° 01:24:21 10° 339° (NNW) 1,758 5.5 -8.7°
Maximum altitude 01:28:05 50° 264° (W) 672 2.9 -8.3°
Drops below altitude 10° 01:31:48 10° 189° (S) 1,751 5.0 -7.8°
Sets 01:33:58 0° 184° (S) 2,637 6.0 -7.6°
